Wetterdaten: Woche 27.01.14 - 02.02.14 (KW5)
Datum Zeit Temp. Aussen +5cm Feuchte Auss Luftdruck Regen Sonnenschein Regendauer UV Solar Windben
27.01.2014 00:00 4,6 C 3,5 C 97 % 990,0 hPa 0,2 l/m 0,00 h 0,37 h 0,0 UV-I 0 W/m 4,0 km/h (1 Bft)
27.01.2014 01:00 5,4 C 4,0 C 98 % 990,3 hPa 0,0 l/m 0,00 h 0,00 h 0,0 UV-I 0 W/m 8,8 km/h (2 Bft)
27.01.2014 02:00 4,8 C 3,0 C 97 % 991,0 hPa 1,0 l/m 0,00 h 0,43 h 0,0 UV-I 0 W/m 12,0 km/h (2 Bft)
27.01.2014 03:00 4,1 C 2,5 C 97 % 991,5 hPa 0,2 l/m 0,00 h 0,10 h 0,0 UV-I 0 W/m 8,5 km/h (2 Bft)
27.01.2014 04:00 3,4 C 1,6 C 96 % 992,1 hPa 0,8 l/m 0,00 h 0,37 h 0,0 UV-I 0 W/m 13,2 km/h (3 Bft)
27.01.2014 05:00 3,4 C 1,7 C 98 % 993,2 hPa 0,2 l/m 0,00 h 0,10 h 0,0 UV-I 0 W/m 11,6 km/h (2 Bft)
27.01.2014 06:00 3,1 C 1,3 C 98 % 993,8 hPa 0,2 l/m 0,00 h 0,10 h 0,0 UV-I 0 W/m 8,5 km/h (2 Bft)
27.01.2014 07:00 2,5 C 0,7 C 95 % 994,1 hPa 0,0 l/m 0,00 h 0,00 h 0,0 UV-I 0 W/m 7,6 km/h (2 Bft)
27.01.2014 08:00 2,4 C 1,1 C 93 % 994,4 hPa 0,0 l/m 0,00 h 0,00 h 0,0 UV-I 10 W/m 11,9 km/h (2 Bft)
27.01.2014 09:00 2,6 C 1,5 C 92 % 994,9 hPa 0,0 l/m 0,00 h 0,00 h 0,0 UV-I 40 W/m 13,9 km/h (3 Bft)
27.01.2014 10:00 3,3 C 2,4 C 91 % 995,2 hPa 0,0 l/m 0,00 h 0,00 h 0,0 UV-I 63 W/m 12,9 km/h (3 Bft)
27.01.2014 11:00 3,7 C 3,0 C 89 % 995,2 hPa 0,2 l/m 0,00 h 0,13 h 0,0 UV-I 90 W/m 13,8 km/h (3 Bft)
27.01.2014 12:00 3,7 C 3,2 C 88 % 995,1 hPa 0,0 l/m 0,17 h 0,00 h 0,0 UV-I 131 W/m 17,0 km/h (3 Bft)
27.01.2014 13:00 4,8 C 4,1 C 83 % 994,8 hPa 0,0 l/m 0,33 h 0,00 h 0,0 UV-I 190 W/m 16,6 km/h (3 Bft)
27.01.2014 14:00 4,9 C 4,1 C 80 % 994,4 hPa 0,0 l/m 0,10 h 0,00 h 0,0 UV-I 118 W/m 16,6 km/h (3 Bft)
27.01.2014 15:00 4,8 C 3,9 C 80 % 994,3 hPa 0,0 l/m 0,00 h 0,00 h 0,0 UV-I 75 W/m 10,7 km/h (2 Bft)
27.01.2014 16:00 4,7 C 3,4 C 80 % 994,2 hPa 0,0 l/m 0,00 h 0,00 h 0,0 UV-I 17 W/m 12,0 km/h (2 Bft)
27.01.2014 17:00 4,7 C 3,3 C 80 % 994,2 hPa 0,0 l/m 0,00 h 0,00 h 0,0 UV-I 0 W/m 12,5 km/h (3 Bft)
27.01.2014 18:00 4,6 C 3,1 C 81 % 994,4 hPa 0,0 l/m 0,00 h 0,20 h 0,0 UV-I 0 W/m 12,5 km/h (3 Bft)
27.01.2014 19:00 4,2 C 2,6 C 86 % 994,5 hPa 0,0 l/m 0,00 h 0,20 h 0,0 UV-I 0 W/m 8,6 km/h (2 Bft)
27.01.2014 20:00 4,1 C 2,8 C 87 % 995,0 hPa 0,0 l/m 0,00 h 0,00 h 0,0 UV-I 0 W/m 11,1 km/h (2 Bft)
27.01.2014 21:00 4,2 C 2,4 C 89 % 995,2 hPa 0,0 l/m 0,00 h 0,30 h 0,0 UV-I 0 W/m 8,7 km/h (2 Bft)
27.01.2014 22:00 3,9 C 2,2 C 92 % 995,5 hPa 0,0 l/m 0,00 h 0,00 h 0,0 UV-I 0 W/m 6,3 km/h (2 Bft)
27.01.2014 23:00 4,0 C 2,5 C 92 % 995,7 hPa 0,0 l/m 0,00 h 0,00 h 0,0 UV-I 0 W/m 5,6 km/h (1 Bft)
28.01.2014 00:00 3,9 C 2,1 C 91 % 995,8 hPa 0,0 l/m 0,00 h 0,00 h 0,0 UV-I 0 W/m 5,6 km/h (1 Bft)
28.01.2014 01:00 3,7 C 2,6 C 91 % 996,0 hPa 0,2 l/m 0,00 h 0,10 h 0,0 UV-I 0 W/m 8,7 km/h (2 Bft)
28.01.2014 02:00 3,8 C 2,3 C 91 % 996,2 hPa 0,0 l/m 0,00 h 0,00 h 0,0 UV-I 0 W/m 9,9 km/h (2 Bft)
28.01.2014 03:00 3,2 C 1,2 C 91 % 996,4 hPa 0,0 l/m 0,00 h 0,00 h 0,0 UV-I 0 W/m 11,2 km/h (2 Bft)
28.01.2014 04:00 2,7 C 1,0 C 91 % 996,4 hPa 0,0 l/m 0,00 h 0,00 h 0,0 UV-I 0 W/m 10,6 km/h (2 Bft)
28.01.2014 05:00 2,3 C 0,6 C 91 % 996,5 hPa 0,0 l/m 0,00 h 0,00 h 0,0 UV-I 0 W/m 12,0 km/h (2 Bft)
28.01.2014 06:00 2,3 C 0,6 C 90 % 996,8 hPa 0,0 l/m 0,00 h 0,00 h 0,0 UV-I 0 W/m 12,3 km/h (3 Bft)
28.01.2014 07:00 2,2 C 0,6 C 90 % 997,0 hPa 0,0 l/m 0,00 h 0,00 h 0,0 UV-I 0 W/m 14,6 km/h (3 Bft)
28.01.2014 08:00 2,7 C 1,3 C 88 % 997,2 hPa 0,0 l/m 0,00 h 0,00 h 0,0 UV-I 10 W/m 17,7 km/h (3 Bft)
28.01.2014 09:00 3,2 C 1,8 C 85 % 997,3 hPa 0,0 l/m 0,27 h 0,00 h 0,0 UV-I 55 W/m 14,4 km/h (3 Bft)
28.01.2014 10:00 4,7 C 3,0 C 79 % 997,4 hPa 0,0 l/m 1,00 h 0,00 h 0,0 UV-I 189 W/m 31,0 km/h (5 Bft)
28.01.2014 11:00 5,6 C 3,7 C 75 % 997,5 hPa 0,0 l/m 1,00 h 0,00 h 0,0 UV-I 276 W/m 32,4 km/h (5 Bft)
28.01.2014 12:00 6,2 C 4,5 C 73 % 997,4 hPa 0,0 l/m 1,00 h 0,00 h 0,0 UV-I 315 W/m 30,1 km/h (5 Bft)
28.01.2014 13:00 6,6 C 5,0 C 71 % 997,1 hPa 0,0 l/m 1,00 h 0,00 h 0,0 UV-I 312 W/m 32,3 km/h (5 Bft)
28.01.2014 14:00 6,9 C 5,4 C 70 % 996,5 hPa 0,0 l/m 0,83 h 0,00 h 0,0 UV-I 243 W/m 30,3 km/h (5 Bft)
28.01.2014 15:00 6,0 C 4,4 C 72 % 996,4 hPa 0,0 l/m 0,00 h 0,00 h 0,0 UV-I 67 W/m 23,5 km/h (4 Bft)
28.01.2014 16:00 5,6 C 4,1 C 74 % 996,7 hPa 0,0 l/m 0,00 h 0,00 h 0,0 UV-I 40 W/m 20,9 km/h (4 Bft)
28.01.2014 17:00 5,0 C 3,1 C 73 % 996,7 hPa 0,0 l/m 0,00 h 0,00 h 0,0 UV-I 8 W/m 25,5 km/h (4 Bft)
28.01.2014 18:00 4,1 C 2,1 C 77 % 996,9 hPa 0,0 l/m 0,00 h 0,00 h 0,0 UV-I 0 W/m 13,3 km/h (3 Bft)
28.01.2014 19:00 3,5 C 1,5 C 81 % 997,3 hPa 0,0 l/m 0,00 h 0,00 h 0,0 UV-I 0 W/m 7,0 km/h (2 Bft)
28.01.2014 20:00 3,0 C 1,0 C 83 % 997,6 hPa 0,0 l/m 0,00 h 0,00 h 0,0 UV-I 0 W/m 4,2 km/h (1 Bft)
28.01.2014 21:00 2,8 C 0,9 C 84 % 997,8 hPa 0,0 l/m 0,00 h 0,00 h 0,0 UV-I 0 W/m 9,1 km/h (2 Bft)
28.01.2014 22:00 2,4 C 0,7 C 87 % 997,9 hPa 0,0 l/m 0,00 h 0,00 h 0,0 UV-I 0 W/m 11,3 km/h (2 Bft)
28.01.2014 23:00 2,5 C 0,6 C 87 % 998,0 hPa 0,0 l/m 0,00 h 0,00 h 0,0 UV-I 0 W/m 12,4 km/h (3 Bft)
29.01.2014 00:00 2,0 C 0,2 C 88 % 998,1 hPa 0,0 l/m 0,00 h 0,00 h 0,0 UV-I 0 W/m 5,2 km/h (1 Bft)
29.01.2014 01:00 1,6 C -0,2 C 89 % 998,3 hPa 0,0 l/m 0,00 h 0,00 h 0,0 UV-I 0 W/m 8,4 km/h (2 Bft)
29.01.2014 02:00 1,1 C -0,8 C 89 % 998,4 hPa 0,0 l/m 0,00 h 0,00 h 0,0 UV-I 0 W/m 3,4 km/h (1 Bft)
29.01.2014 03:00 1,2 C -0,6 C 89 % 998,5 hPa 0,0 l/m 0,00 h 0,00 h 0,0 UV-I 0 W/m 9,7 km/h (2 Bft)
29.01.2014 04:00 1,0 C -0,6 C 89 % 998,4 hPa 0,0 l/m 0,00 h 0,00 h 0,0 UV-I 0 W/m 12,2 km/h (2 Bft)
29.01.2014 05:00 0,6 C -0,9 C 89 % 998,6 hPa 0,0 l/m 0,00 h 0,00 h 0,0 UV-I 0 W/m 10,5 km/h (2 Bft)
29.01.2014 06:00 0,3 C -1,1 C 90 % 998,9 hPa 0,0 l/m 0,00 h 0,00 h 0,0 UV-I 0 W/m 10,6 km/h (2 Bft)
29.01.2014 07:00 0,1 C -1,4 C 91 % 999,4 hPa 0,0 l/m 0,00 h 0,00 h 0,0 UV-I 0 W/m 7,3 km/h (2 Bft)
29.01.2014 08:00 0,1 C -1,2 C 91 % 999,6 hPa 0,0 l/m 0,00 h 0,00 h 0,0 UV-I 13 W/m 9,3 km/h (2 Bft)
29.01.2014 09:00 0,7 C -0,2 C 88 % 999,9 hPa 0,0 l/m 0,00 h 0,00 h 0,0 UV-I 52 W/m 14,2 km/h (3 Bft)
29.01.2014 10:00 1,6 C 1,0 C 85 % 1000,2 hPa 0,0 l/m 0,13 h 0,00 h 0,0 UV-I 126 W/m 14,3 km/h (3 Bft)
29.01.2014 11:00 2,5 C 2,2 C 82 % 1000,3 hPa 0,0 l/m 0,30 h 0,00 h 0,0 UV-I 168 W/m 14,9 km/h (3 Bft)
29.01.2014 12:00 3,3 C 2,5 C 78 % 1000,0 hPa 0,0 l/m 0,77 h 0,00 h 0,0 UV-I 258 W/m 19,4 km/h (3 Bft)
29.01.2014 13:00 4,3 C 3,2 C 74 % 999,7 hPa 0,0 l/m 1,00 h 0,00 h 0,0 UV-I 285 W/m 17,3 km/h (3 Bft)
29.01.2014 14:00 4,9 C 3,6 C 71 % 999,4 hPa 0,0 l/m 1,00 h 0,00 h 0,0 UV-I 234 W/m 17,3 km/h (3 Bft)
29.01.2014 15:00 4,8 C 3,3 C 71 % 999,4 hPa 0,0 l/m 0,87 h 0,00 h 0,0 UV-I 146 W/m 16,8 km/h (3 Bft)
29.01.2014 16:00 4,1 C 2,4 C 73 % 999,7 hPa 0,0 l/m 0,00 h 0,00 h 0,0 UV-I 33 W/m 9,3 km/h (2 Bft)
29.01.2014 17:00 2,9 C 1,1 C 77 % 1000,4 hPa 0,0 l/m 0,10 h 0,00 h 0,0 UV-I 9 W/m 9,0 km/h (2 Bft)
29.01.2014 18:00 2,1 C 0,5 C 78 % 1001,1 hPa 0,0 l/m 0,00 h 0,00 h 0,0 UV-I 0 W/m 13,6 km/h (3 Bft)
29.01.2014 19:00 1,3 C -0,3 C 80 % 1001,5 hPa 0,0 l/m 0,00 h 0,00 h 0,0 UV-I 0 W/m 12,4 km/h (3 Bft)
29.01.2014 20:00 0,8 C -0,7 C 81 % 1002,1 hPa 0,0 l/m 0,00 h 0,00 h 0,0 UV-I 0 W/m 13,1 km/h (3 Bft)
29.01.2014 21:00 0,4 C -1,1 C 83 % 1002,6 hPa 0,0 l/m 0,00 h 0,00 h 0,0 UV-I 0 W/m 9,8 km/h (2 Bft)
29.01.2014 22:00 0,5 C -1,0 C 83 % 1003,0 hPa 0,0 l/m 0,00 h 0,00 h 0,0 UV-I 0 W/m 9,9 km/h (2 Bft)
29.01.2014 23:00 0,6 C -0,6 C 83 % 1002,9 hPa 0,0 l/m 0,00 h 0,00 h 0,0 UV-I 0 W/m 10,2 km/h (2 Bft)
30.01.2014 00:00 1,2 C 0,2 C 82 % 1003,2 hPa 0,0 l/m 0,00 h 0,00 h 0,0 UV-I 0 W/m 11,4 km/h (2 Bft)
30.01.2014 01:00 1,6 C 0,5 C 81 % 1003,4 hPa 0,0 l/m 0,00 h 0,00 h 0,0 UV-I 0 W/m 11,2 km/h (2 Bft)
30.01.2014 02:00 1,4 C 0,2 C 82 % 1003,7 hPa 0,0 l/m 0,00 h 0,00 h 0,0 UV-I 0 W/m 12,4 km/h (3 Bft)
30.01.2014 03:00 1,6 C 0,6 C 82 % 1003,8 hPa 0,0 l/m 0,00 h 0,00 h 0,0 UV-I 0 W/m 11,6 km/h (2 Bft)
30.01.2014 04:00 1,2 C -0,1 C 83 % 1003,9 hPa 0,0 l/m 0,00 h 0,00 h 0,0 UV-I 0 W/m 11,8 km/h (2 Bft)
30.01.2014 05:00 0,6 C -0,8 C 85 % 1004,1 hPa 0,0 l/m 0,00 h 0,00 h 0,0 UV-I 0 W/m 9,7 km/h (2 Bft)
30.01.2014 06:00 0,6 C -0,6 C 86 % 1004,3 hPa 0,0 l/m 0,00 h 0,00 h 0,0 UV-I 0 W/m 6,8 km/h (2 Bft)
30.01.2014 07:00 1,2 C 0,0 C 84 % 1004,7 hPa 0,0 l/m 0,00 h 0,00 h 0,0 UV-I 0 W/m 8,5 km/h (2 Bft)
30.01.2014 08:00 1,0 C -0,4 C 84 % 1005,2 hPa 0,0 l/m 0,00 h 0,00 h 0,0 UV-I 15 W/m 9,1 km/h (2 Bft)
30.01.2014 09:00 1,0 C -0,4 C 85 % 1005,7 hPa 0,0 l/m 0,00 h 0,00 h 0,0 UV-I 39 W/m 2,7 km/h (1 Bft)
30.01.2014 10:00 2,2 C 1,3 C 82 % 1005,9 hPa 0,0 l/m 0,20 h 0,00 h 0,0 UV-I 126 W/m 12,3 km/h (3 Bft)
30.01.2014 11:00 3,8 C 3,2 C 77 % 1005,7 hPa 0,0 l/m 0,77 h 0,00 h 0,0 UV-I 268 W/m 17,6 km/h (3 Bft)
30.01.2014 12:00 4,8 C 3,4 C 74 % 1005,6 hPa 0,0 l/m 1,00 h 0,00 h 0,0 UV-I 306 W/m 19,2 km/h (3 Bft)
30.01.2014 13:00 4,7 C 3,6 C 74 % 1005,6 hPa 0,0 l/m 0,63 h 0,00 h 0,0 UV-I 223 W/m 13,0 km/h (3 Bft)
30.01.2014 14:00 5,3 C 4,0 C 73 % 1005,2 hPa 0,0 l/m 0,60 h 0,00 h 0,0 UV-I 191 W/m 11,6 km/h (2 Bft)
30.01.2014 15:00 5,7 C 5,0 C 72 % 1005,4 hPa 0,0 l/m 0,90 h 0,00 h 0,0 UV-I 184 W/m 13,7 km/h (3 Bft)
30.01.2014 16:00 5,6 C 4,2 C 72 % 1005,4 hPa 0,0 l/m 0,13 h 0,00 h 0,0 UV-I 49 W/m 8,5 km/h (2 Bft)
30.01.2014 17:00 4,7 C 2,6 C 75 % 1005,6 hPa 0,0 l/m 0,17 h 0,00 h 0,0 UV-I 13 W/m 3,5 km/h (1 Bft)
30.01.2014 18:00 3,7 C 1,4 C 78 % 1005,8 hPa 0,0 l/m 0,00 h 0,00 h 0,0 UV-I 0 W/m 1,0 km/h (0 Bft)
30.01.2014 19:00 3,3 C 1,0 C 78 % 1006,1 hPa 0,0 l/m 0,00 h 0,00 h 0,0 UV-I 0 W/m 1,2 km/h (1 Bft)
30.01.2014 20:00 3,0 C 1,1 C 79 % 1006,3 hPa 0,0 l/m 0,00 h 0,00 h 0,0 UV-I 0 W/m 5,6 km/h (1 Bft)
30.01.2014 21:00 2,4 C 0,8 C 79 % 1006,5 hPa 0,0 l/m 0,00 h 0,00 h 0,0 UV-I 0 W/m 6,3 km/h (2 Bft)
30.01.2014 22:00 1,6 C -0,0 C 82 % 1006,6 hPa 0,0 l/m 0,00 h 0,00 h 0,0 UV-I 0 W/m 1,3 km/h (1 Bft)
30.01.2014 23:00 1,2 C -0,6 C 83 % 1006,6 hPa 0,0 l/m 0,00 h 0,00 h 0,0 UV-I 0 W/m 5,9 km/h (2 Bft)
31.01.2014 00:00 0,6 C -1,3 C 84 % 1006,6 hPa 0,0 l/m 0,00 h 0,00 h 0,0 UV-I 0 W/m 1,5 km/h (1 Bft)
31.01.2014 01:00 0,1 C -1,8 C 87 % 1006,9 hPa 0,0 l/m 0,00 h 0,00 h 0,0 UV-I 0 W/m 0,0 km/h (0 Bft)
31.01.2014 02:00 -0,0 C -1,7 C 88 % 1007,0 hPa 0,0 l/m 0,00 h 0,00 h 0,0 UV-I 0 W/m 0,0 km/h (0 Bft)
31.01.2014 03:00 0,4 C -1,0 C 87 % 1007,1 hPa 0,0 l/m 0,00 h 0,00 h 0,0 UV-I 0 W/m 1,6 km/h (1 Bft)
31.01.2014 04:00 0,1 C -1,5 C 88 % 1006,9 hPa 0,0 l/m 0,00 h 0,00 h 0,0 UV-I 0 W/m 1,0 km/h (0 Bft)
31.01.2014 05:00 -0,4 C -2,1 C 90 % 1006,7 hPa 0,0 l/m 0,00 h 0,00 h 0,0 UV-I 0 W/m 1,5 km/h (1 Bft)
31.01.2014 06:00 -0,9 C -2,7 C 91 % 1006,6 hPa 0,0 l/m 0,00 h 0,00 h 0,0 UV-I 0 W/m 0,9 km/h (0 Bft)
31.01.2014 07:00 -1,7 C -3,7 C 93 % 1006,9 hPa 0,0 l/m 0,00 h 0,00 h 0,0 UV-I 0 W/m 0,0 km/h (0 Bft)
31.01.2014 08:00 -1,4 C -3,3 C 94 % 1007,7 hPa 0,0 l/m 0,00 h 0,00 h 0,0 UV-I 16 W/m 0,0 km/h (0 Bft)
31.01.2014 09:00 -0,5 C -1,9 C 93 % 1008,1 hPa 0,0 l/m 0,20 h 0,00 h 0,0 UV-I 70 W/m 2,3 km/h (1 Bft)
31.01.2014 10:00 1,3 C -0,1 C 89 % 1008,1 hPa 0,0 l/m 1,00 h 0,00 h 0,0 UV-I 174 W/m 7,0 km/h (2 Bft)
31.01.2014 11:00 3,8 C 1,9 C 83 % 1007,9 hPa 0,0 l/m 1,00 h 0,00 h 0,0 UV-I 260 W/m 8,6 km/h (2 Bft)
31.01.2014 12:00 5,5 C 3,8 C 79 % 1007,8 hPa 0,0 l/m 1,00 h 0,00 h 0,0 UV-I 298 W/m 10,0 km/h (2 Bft)
31.01.2014 13:00 6,9 C 5,1 C 76 % 1007,3 hPa 0,0 l/m 1,00 h 0,00 h 0,0 UV-I 299 W/m 10,7 km/h (2 Bft)
31.01.2014 14:00 7,6 C 5,9 C 75 % 1006,7 hPa 0,0 l/m 1,00 h 0,00 h 0,0 UV-I 251 W/m 11,3 km/h (2 Bft)
31.01.2014 15:00 7,5 C 5,8 C 76 % 1006,0 hPa 0,0 l/m 1,00 h 0,00 h 0,0 UV-I 164 W/m 10,5 km/h (2 Bft)
31.01.2014 16:00 6,3 C 4,1 C 81 % 1006,0 hPa 0,0 l/m 0,03 h 0,00 h 0,0 UV-I 32 W/m 6,4 km/h (2 Bft)
31.01.2014 17:00 5,1 C 2,3 C 82 % 1005,9 hPa 0,0 l/m 0,00 h 0,00 h 0,0 UV-I 9 W/m 0,3 km/h (0 Bft)
31.01.2014 18:00 4,7 C 2,6 C 84 % 1005,6 hPa 0,0 l/m 0,00 h 0,00 h 0,0 UV-I 0 W/m 14,2 km/h (3 Bft)
31.01.2014 19:00 4,3 C 2,4 C 85 % 1005,0 hPa 0,0 l/m 0,00 h 0,00 h 0,0 UV-I 0 W/m 16,1 km/h (3 Bft)
31.01.2014 20:00 4,3 C 2,4 C 84 % 1004,2 hPa 0,0 l/m 0,00 h 0,00 h 0,0 UV-I 0 W/m 16,5 km/h (3 Bft)
31.01.2014 21:00 4,2 C 2,7 C 83 % 1003,3 hPa 0,0 l/m 0,00 h 0,00 h 0,0 UV-I 0 W/m 23,6 km/h (4 Bft)
31.01.2014 22:00 4,1 C 2,8 C 82 % 1002,4 hPa 0,0 l/m 0,00 h 0,00 h 0,0 UV-I 0 W/m 26,2 km/h (4 Bft)
31.01.2014 23:00 3,8 C 2,3 C 83 % 1001,6 hPa 0,0 l/m 0,00 h 0,00 h 0,0 UV-I 0 W/m 24,2 km/h (4 Bft)
01.02.2014 00:00 3,7 C 2,2 C 84 % 1000,9 hPa 0,0 l/m 0,00 h 0,00 h 0,0 UV-I 0 W/m 25,3 km/h (4 Bft)
01.02.2014 01:00 3,8 C 2,6 C 84 % 999,8 hPa 0,0 l/m 0,00 h 0,00 h 0,0 UV-I 0 W/m 27,3 km/h (4 Bft)
01.02.2014 02:00 4,2 C 2,8 C 84 % 998,5 hPa 0,0 l/m 0,00 h 0,00 h 0,0 UV-I 0 W/m 26,5 km/h (4 Bft)
01.02.2014 03:00 4,3 C 2,8 C 84 % 997,2 hPa 0,0 l/m 0,00 h 0,00 h 0,0 UV-I 0 W/m 30,9 km/h (5 Bft)
01.02.2014 04:00 4,5 C 3,2 C 84 % 996,2 hPa 0,0 l/m 0,00 h 0,10 h 0,0 UV-I 0 W/m 31,4 km/h (5 Bft)
01.02.2014 05:00 4,7 C 3,3 C 83 % 995,1 hPa 0,0 l/m 0,00 h 0,00 h 0,0 UV-I 0 W/m 31,6 km/h (5 Bft)
01.02.2014 06:00 5,1 C 3,6 C 82 % 994,3 hPa 0,0 l/m 0,00 h 0,00 h 0,0 UV-I 0 W/m 26,5 km/h (4 Bft)
01.02.2014 07:00 6,1 C 3,7 C 81 % 994,1 hPa 0,2 l/m 0,00 h 0,77 h 0,0 UV-I 0 W/m 27,2 km/h (4 Bft)
01.02.2014 08:00 6,1 C 3,7 C 83 % 994,6 hPa 0,2 l/m 0,00 h 0,63 h 0,0 UV-I 8 W/m 22,0 km/h (4 Bft)
01.02.2014 09:00 6,2 C 3,9 C 88 % 995,2 hPa 0,2 l/m 0,00 h 1,00 h 0,0 UV-I 24 W/m 19,0 km/h (3 Bft)
01.02.2014 10:00 6,3 C 4,1 C 90 % 995,6 hPa 0,6 l/m 0,00 h 1,00 h 0,0 UV-I 24 W/m 16,7 km/h (3 Bft)
01.02.2014 11:00 6,3 C 4,4 C 93 % 996,6 hPa 1,0 l/m 0,00 h 1,00 h 0,0 UV-I 29 W/m 11,9 km/h (2 Bft)
01.02.2014 12:00 6,2 C 4,5 C 94 % 997,4 hPa 0,4 l/m 0,00 h 1,00 h 0,0 UV-I 43 W/m 11,9 km/h (2 Bft)
01.02.2014 13:00 6,4 C 5,0 C 94 % 997,9 hPa 0,2 l/m 0,00 h 1,00 h 0,0 UV-I 54 W/m 11,2 km/h (2 Bft)
01.02.2014 14:00 6,6 C 5,2 C 96 % 998,7 hPa 0,2 l/m 0,00 h 0,13 h 0,0 UV-I 45 W/m 7,1 km/h (2 Bft)
01.02.2014 15:00 7,1 C 5,6 C 94 % 999,4 hPa 0,0 l/m 0,00 h 0,00 h 0,0 UV-I 50 W/m 6,2 km/h (2 Bft)
01.02.2014 16:00 7,3 C 4,9 C 90 % 1000,0 hPa 0,0 l/m 0,00 h 0,00 h 0,0 UV-I 23 W/m 11,6 km/h (2 Bft)
01.02.2014 17:00 7,0 C 4,4 C 87 % 1001,1 hPa 0,0 l/m 0,00 h 0,00 h 0,0 UV-I 7 W/m 7,4 km/h (2 Bft)
01.02.2014 18:00 6,6 C 4,1 C 88 % 1002,1 hPa 0,0 l/m 0,00 h 0,00 h 0,0 UV-I 0 W/m 8,0 km/h (2 Bft)
01.02.2014 19:00 6,1 C 3,3 C 85 % 1002,8 hPa 0,0 l/m 0,00 h 0,00 h 0,0 UV-I 0 W/m 7,0 km/h (2 Bft)
01.02.2014 20:00 5,4 C 3,0 C 89 % 1003,4 hPa 0,0 l/m 0,00 h 0,00 h 0,0 UV-I 0 W/m 4,9 km/h (1 Bft)
01.02.2014 21:00 5,4 C 3,1 C 89 % 1004,0 hPa 0,0 l/m 0,00 h 0,00 h 0,0 UV-I 0 W/m 4,5 km/h (1 Bft)
01.02.2014 22:00 4,5 C 2,8 C 91 % 1004,6 hPa 0,0 l/m 0,00 h 0,00 h 0,0 UV-I 0 W/m 7,0 km/h (2 Bft)
01.02.2014 23:00 4,6 C 2,8 C 90 % 1005,1 hPa 0,0 l/m 0,00 h 0,00 h 0,0 UV-I 0 W/m 10,5 km/h (2 Bft)
02.02.2014 00:00 4,7 C 2,8 C 88 % 1005,5 hPa 0,0 l/m 0,00 h 0,00 h 0,0 UV-I 0 W/m 11,3 km/h (2 Bft)
02.02.2014 01:00 4,3 C 2,4 C 88 % 1005,9 hPa 0,0 l/m 0,00 h 0,00 h 0,0 UV-I 0 W/m 8,7 km/h (2 Bft)
02.02.2014 02:00 3,7 C 1,7 C 90 % 1006,1 hPa 0,0 l/m 0,00 h 0,00 h 0,0 UV-I 0 W/m 5,6 km/h (1 Bft)
02.02.2014 03:00 3,8 C 1,7 C 90 % 1006,6 hPa 0,0 l/m 0,00 h 0,00 h 0,0 UV-I 0 W/m 3,9 km/h (1 Bft)
02.02.2014 04:00 4,0 C 1,8 C 89 % 1006,8 hPa 0,0 l/m 0,00 h 0,00 h 0,0 UV-I 0 W/m 6,3 km/h (2 Bft)
02.02.2014 05:00 3,6 C 1,1 C 90 % 1007,1 hPa 0,0 l/m 0,00 h 0,00 h 0,0 UV-I 0 W/m 2,6 km/h (1 Bft)
02.02.2014 06:00 2,7 C 0,6 C 91 % 1007,6 hPa 0,0 l/m 0,00 h 0,00 h 0,0 UV-I 0 W/m 3,2 km/h (1 Bft)
02.02.2014 07:00 2,5 C 0,2 C 92 % 1008,3 hPa 0,0 l/m 0,00 h 0,00 h 0,0 UV-I 0 W/m 1,3 km/h (1 Bft)
02.02.2014 08:00 1,6 C -0,6 C 92 % 1009,3 hPa 0,0 l/m 0,00 h 0,00 h 0,0 UV-I 15 W/m 0,3 km/h (0 Bft)
02.02.2014 09:00 2,1 C 0,3 C 93 % 1010,0 hPa 0,0 l/m 0,47 h 0,00 h 0,0 UV-I 79 W/m 3,1 km/h (1 Bft)
02.02.2014 10:00 5,0 C 2,8 C 84 % 1010,6 hPa 0,0 l/m 1,00 h 0,00 h 0,0 UV-I 207 W/m 7,3 km/h (2 Bft)
02.02.2014 11:00 7,2 C 4,9 C 76 % 1011,2 hPa 0,0 l/m 1,00 h 0,00 h 0,0 UV-I 290 W/m 11,7 km/h (2 Bft)
02.02.2014 12:00 8,7 C 6,6 C 73 % 1011,8 hPa 0,0 l/m 1,00 h 0,00 h 0,0 UV-I 328 W/m 12,2 km/h (2 Bft)
02.02.2014 13:00 9,5 C 7,5 C 67 % 1011,8 hPa 0,0 l/m 1,00 h 0,00 h 0,0 UV-I 329 W/m 13,7 km/h (3 Bft)
02.02.2014 14:00 9,7 C 7,8 C 65 % 1011,9 hPa 0,0 l/m 1,00 h 0,00 h 0,0 UV-I 282 W/m 14,1 km/h (3 Bft)
02.02.2014 15:00 9,4 C 7,4 C 65 % 1012,5 hPa 0,0 l/m 1,00 h 0,00 h 0,0 UV-I 199 W/m 13,8 km/h (3 Bft)
02.02.2014 16:00 8,6 C 6,5 C 66 % 1013,0 hPa 0,0 l/m 0,13 h 0,00 h 0,0 UV-I 41 W/m 10,6 km/h (2 Bft)
02.02.2014 17:00 7,6 C 5,0 C 69 % 1013,6 hPa 0,0 l/m 0,00 h 0,00 h 0,0 UV-I 10 W/m 5,6 km/h (1 Bft)
02.02.2014 18:00 6,0 C 3,0 C 76 % 1014,4 hPa 0,0 l/m 0,00 h 0,00 h 0,0 UV-I 0 W/m 0,8 km/h (0 Bft)
02.02.2014 19:00 5,1 C 2,5 C 81 % 1015,2 hPa 0,0 l/m 0,00 h 0,00 h 0,0 UV-I 0 W/m 3,2 km/h (1 Bft)
02.02.2014 20:00 3,8 C 1,1 C 84 % 1015,9 hPa 0,0 l/m 0,00 h 0,00 h 0,0 UV-I 0 W/m 0,3 km/h (0 Bft)
02.02.2014 21:00 3,0 C 0,5 C 87 % 1016,4 hPa 0,0 l/m 0,00 h 0,00 h 0,0 UV-I 0 W/m 0,0 km/h (0 Bft)
02.02.2014 22:00 2,0 C -0,5 C 89 % 1016,9 hPa 0,0 l/m 0,00 h 0,00 h 0,0 UV-I 0 W/m 0,6 km/h (0 Bft)
02.02.2014 23:00 1,5 C -0,4 C 91 % 1016,9 hPa 0,0 l/m 0,00 h 0,00 h 0,0 UV-I 0 W/m 5,9 km/h (2 Bft)
Min-Datum _ 31.01.14 31.01.14 02.02.14 27.01.14 - - - - - 27.01.14
_ Min-Zeit 07:32 07:14 15:24 00:00 - - - - - 00:02
Minimum _ -2,0 C -3,9 C 62 % 989,6 hPa - - - - - 0,0 km/h (0 Bft)
Max-Datum _ 02.02.14 02.02.14 27.01.14 02.02.14 27.01.14 27.01.14 27.01.14 27.01.14 27.01.14 28.01.14
_ Max-Zeit 14:34 13:10 00:36 22:28 02:22 12:46 00:00 00:00 13:48 11:04
Maximum _ 10,0 C 7,8 C 98 % 1017,0 hPa 1,0 l/m 0,03 h 0,03 h 0,0 UV-I 429 W/m 54,1 km/h
S-SO (7 Bft)
Durchschnitt _ 3,7 C 2,0 C 84 % 1001,7 hPa #6,0 l/m #27:06 h #9:04 h 0,0 UV-I 125 W/m 11,3 km/h (2 Bft)
© 2014 W. Hausmann